QPF
0.00 0.00 0.00 0.00 0.01 0.01 0.01 0.01 0.01 0.01 0.01 0.01 0.01 0.00 0.00 0.01 0.03 0.04 0.04 0.04 0.04 0.04 0.04 0.04 0.07 0.08 0.07 0.06 0.06 0.06 0.06 0.05 0.04 0.04 0.03 0.03 0.03 0.03 0.04 0.05 0.05 0.04 0.02
0.00 0.00 0.00 0.00 0.01 0.01 0.01 0.01 0.01 0.01 0.01 0.01 0.02 0.01 0.01 0.00 0.01 0.04 0.04 0.04 0.04 0.05 0.05 0.05 0.04 0.07 0.07 0.06 0.05 0.06 0.06 0.05 0.05 0.04 0.03 0.03 0.03 0.03 0.04 0.05 0.05 0.05 0.03
0.00 0.00 0.01 0.01 0.01 0.01 0.01 0.01 0.02 0.02 0.02 0.02 0.02 0.02 0.02 0.01 0.00 0.02 0.04 0.04 0.04 0.05 0.06 0.06 0.05 0.05 0.06 0.05 0.04 0.05 0.05 0.05 0.06 0.06 0.04 0.03 0.03 0.02 0.03 0.04 0.04 0.04 0.03
0.00 0.00 0.01 0.01 0.01 0.01 0.01 0.01 0.01 0.02 0.02 0.02 0.02 0.02 0.02 0.01 0.01 0.01 0.03 0.03 0.04 0.04 0.06 0.07 0.07 0.06 0.06 0.05 0.04 0.04 0.04 0.03 0.05 0.08 0.09 0.07 0.05 0.03 0.03 0.03 0.04 0.04 0.03
0.00 0.00 0.00 0.01 0.01 0.01 0.01 0.01 0.01 0.01 0.01 0.02 0.02 0.02 0.01 0.01 0.01 0.01 0.02 0.04 0.04 0.04 0.04 0.07 0.07 0.06 0.07 0.07 0.05 0.04 0.04 0.03 0.02 0.04 0.08 0.11 0.09 0.06 0.04 0.03 0.03 0.04 0.04
0.00 0.00 0.00 0.01 0.01 0.01 0.01 0.01 0.01 0.00 0.01 0.01 0.01 0.02 0.02 0.01 0.01 0.01 0.02 0.02 0.04 0.04 0.05 0.06 0.06 0.06 0.06 0.07 0.07 0.05 0.05 0.04 0.02 0.02 0.02 0.05 0.07 0.08 0.06 0.04 0.04 0.04 0.04
0.00 0.00 0.00 0.00 0.00 0.01 0.01 0.01 0.01 0.00 0.00 0.01 0.01 0.01 0.01 0.01 0.01 0.01 0.01 0.01 0.03 0.05 0.05 0.04 0.05 0.06 0.06 0.05 0.07 0.07 0.05 0.04 0.03 0.02 0.01 0.01 0.02 0.03 0.04 0.05 0.04 0.04 0.04
0.00 0.00 0.00 0.00 0.00 0.00 0.01 0.01 0.01 0.01 0.00 0.00 0.00 0.00 0.00 0.00 0.00 0.01 0.01 0.01 0.01 0.03 0.05 0.05 0.05 0.06 0.06 0.06 0.05 0.06 0.05 0.04 0.03 0.02 0.01 0.01 0.01 0.01 0.03 0.03 0.04 0.04 0.03
0.00 0.00 0.00 0.00 0.00 0.00 0.00 0.00 0.01 0.01 0.01 0.01 0.00 0.00 0.00 0.00 0.00 0.00 0.01 0.01 0.01 0.02 0.04 0.05 0.06 0.05 0.06 0.07 0.06 0.05 0.04 0.04 0.02 0.01 0.01 0.01 0.01 0.01 0.01 0.02 0.03 0.04 0.04
0.00 0.00 0.00 0.00 0.00 0.00 0.00 0.00 0.00 0.00 0.01 0.01 0.01 0.00 0.00 0.00 0.00 0.00 0.01 0.01 0.01 0.01 0.03 0.05 0.06 0.06 0.05 0.06 0.07 0.06 0.05 0.03 0.03 0.02 0.01 0.01 0.01 0.01 0.02 0.02 0.02 0.03 0.04
0.00 0.00 0.00 0.00 0.00 0.00 0.00 0.00 0.00 0.00 0.00 0.00 0.01 0.01 0.00 0.00 0.00 0.00 0.01 0.01 0.01 0.01 0.02 0.03 0.05 0.05 0.05 0.05 0.06 0.06 0.05 0.04 0.03 0.02 0.01 0.01 0.01 0.01 0.02 0.02 0.02 0.02 0.03
0.00 0.00 0.00 0.00 0.00 0.00 0.00 0.00 0.00 0.00 0.00 0.00 0.00 0.00 0.00 0.00 0.00 0.01 0.01 0.01 0.01 0.01 0.02 0.02 0.03 0.04 0.04 0.04 0.04 0.04 0.04 0.04 0.03 0.02 0.02 0.01 0.01 0.01 0.02 0.03 0.02 0.02 0.02
0.01 0.00 0.00 0.00 0.00 0.00 0.00 0.00 0.00 0.00 0.00 0.00 0.00 0.00 0.01 0.01 0.00 0.01 0.01 0.01 0.01 0.01 0.01 0.02 0.02 0.03 0.03 0.03 0.03 0.03 0.03 0.02 0.03 0.02 0.02 0.02 0.02 0.01 0.02 0.03 0.03 0.02 0.01
0.00 0.00 0.00 0.00 0.00 0.00 0.00 0.00 0.00 0.00 0.00 0.00 0.00 0.00 0.01 0.00 0.00 0.00 0.01 0.01 0.01 0.01 0.01 0.01 0.02 0.02 0.03 0.02 0.02 0.02 0.02 0.02 0.01 0.02 0.02 0.02 0.02 0.01 0.01 0.03 0.02 0.02 0.01
0.00 0.00 0.00 0.00 0.00 0.00 0.00 0.00 0.00 0.00 0.00 0.00 0.00 0.00 0.00 0.00 0.00 0.00 0.01 0.01 0.01 0.01 0.01 0.01 0.01 0.02 0.02 0.02 0.02 0.02 0.03 0.02 0.01 0.01 0.02 0.02 0.02 0.02 0.02 0.02 0.02 0.02 0.02
0.00 0.00 0.00 0.00 0.00 0.00 0.00 0.00 0.00 0.00 0.00 0.00 0.00 0.00 0.00 0.00 0.00 0.01 0.01 0.01 0.02 0.01 0.01 0.01 0.02 0.02 0.02 0.02 0.02 0.02 0.02 0.02 0.02 0.01 0.01 0.02 0.02 0.02 0.02 0.02 0.02 0.03 0.03
0.00 0.00 0.00 0.00 0.00 0.00 0.00 0.01 0.00 0.00 0.00 0.00 0.01 0.01 0.01 0.01 0.01 0.01 0.01 0.01 0.02 0.02 0.01 0.01 0.02 0.03 0.03 0.03 0.02 0.03 0.02 0.02 0.02 0.02 0.02 0.02 0.02 0.02 0.02 0.02 0.02 0.02 0.02
0.00 0.00 0.00 0.00 0.00 0.00 0.01 0.01 0.01 0.01 0.01 0.01 0.01 0.01 0.01 0.01 0.01 0.01 0.01 0.01 0.02 0.02 0.01 0.01 0.02 0.02 0.03 0.03 0.03 0.02 0.02 0.02 0.02 0.01 0.01 0.02 0.02 0.02 0.02 0.02 0.02 0.02 0.02
0.01 0.01 0.01 0.01 0.01 0.01 0.01 0.01 0.01 0.01 0.01 0.01 0.01 0.01 0.01 0.02 0.02 0.01 0.01 0.01 0.02 0.01 0.01 0.01 0.02 0.02 0.03 0.03 0.03 0.03 0.02 0.02 0.02 0.02 0.01 0.01 0.02 0.02 0.02 0.02 0.02 0.02 0.02
0.01 0.01 0.01 0.01 0.01 0.01 0.01 0.01 0.01 0.01 0.01 0.01 0.01 0.01 0.02 0.02 0.02 0.01 0.01 0.01 0.02 0.01 0.01 0.01 0.01 0.02 0.02 0.03 0.03 0.03 0.03 0.03 0.02 0.02 0.02 0.02 0.02 0.02 0.02 0.03 0.03 0.03 0.02
0.01 0.01 0.01 0.01 0.01 0.01 0.02 0.02 0.02 0.02 0.03 0.03 0.03 0.03 0.03 0.03 0.03 0.02 0.01 0.01 0.02 0.02 0.01 0.01 0.01 0.02 0.02 0.03 0.03 0.04 0.04 0.04 0.03 0.03 0.03 0.03 0.03 0.03 0.03 0.03 0.03 0.03 0.03
0.01 0.01 0.02 0.02 0.01 0.02 0.02 0.02 0.03 0.04 0.04 0.03 0.03 0.04 0.04 0.04 0.04 0.04 0.02 0.02 0.02 0.02 0.02 0.02 0.02 0.02 0.01 0.02 0.03 0.05 0.05 0.05 0.05 0.03 0.03 0.03 0.03 0.04 0.04 0.03 0.03 0.04 0.04
0.02 0.02 0.02 0.02 0.02 0.02 0.02 0.02 0.03 0.04 0.04 0.04 0.04 0.05 0.06 0.06 0.06 0.06 0.04 0.04 0.03 0.03 0.03 0.02 0.02 0.02 0.02 0.02 0.03 0.04 0.06 0.06 0.05 0.05 0.03 0.03 0.04 0.04 0.04 0.05 0.04 0.03 0.03
0.02 0.02 0.02 0.02 0.02 0.02 0.02 0.03 0.03 0.03 0.04 0.04 0.05 0.06 0.07 0.07 0.07 0.06 0.05 0.05 0.04 0.04 0.04 0.03 0.02 0.02 0.02 0.02 0.03 0.04 0.05 0.06 0.06 0.07 0.06 0.05 0.04 0.03 0.03 0.04 0.05 0.05 0.04
0.02 0.02 0.02 0.02 0.03 0.03 0.03 0.03 0.04 0.04 0.05 0.06 0.07 0.07 0.07 0.08 0.07 0.06 0.06 0.05 0.05 0.04 0.04 0.04 0.03 0.02 0.02 0.02 0.03 0.04 0.05 0.06 0.06 0.06 0.07 0.07 0.06 0.05 0.04 0.04 0.04 0.04 0.05
0.02 0.02 0.02 0.02 0.02 0.02 0.03 0.03 0.04 0.05 0.06 0.06 0.05 0.06 0.07 0.08 0.08 0.07 0.07 0.06 0.06 0.05 0.04 0.04 0.03 0.03 0.02 0.02 0.03 0.04 0.05 0.06 0.06 0.07 0.07 0.07 0.07 0.05 0.04 0.04 0.04 0.04 0.04
MSLP
1013.61 1013.94 1014.18 1014.35 1014.48 1014.63 1014.86 1015.20 1015.67 1016.26 1016.92 1017.61 1018.26 1018.82 1019.25 1019.56 1019.74 1019.85 1019.92 1019.99 1020.10 1020.26 1020.47 1020.73 1021.02 1021.31 1021.61 1021.90 1022.17 1022.44 1022.70 1022.97 1023.24 1023.52 1023.79 1024.04 1024.28 1024.49 1024.67 1024.82 1024.94 1025.03 1025.08
1013.43 1013.86 1014.18 1014.39 1014.54 1014.68 1014.87 1015.17 1015.61 1016.18 1016.85 1017.57 1018.27 1018.90 1019.41 1019.79 1020.05 1020.22 1020.33 1020.42 1020.53 1020.69 1020.88 1021.12 1021.37 1021.64 1021.90 1022.15 1022.38 1022.61 1022.85 1023.09 1023.34 1023.59 1023.85 1024.11 1024.35 1024.58 1024.78 1024.97 1025.14 1025.28 1025.40
1013.04 1013.59 1014.01 1014.30 1014.50 1014.66 1014.85 1015.12 1015.54 1016.09 1016.76 1017.50 1018.24 1018.93 1019.53 1020.00 1020.34 1020.58 1020.75 1020.89 1021.03 1021.19 1021.37 1021.58 1021.80 1022.03 1022.24 1022.45 1022.64 1022.83 1023.03 1023.25 1023.47 1023.71 1023.95 1024.20 1024.44 1024.68 1024.90 1025.12 1025.33 1025.52 1025.69
1012.46 1013.14 1013.69 1014.09 1014.37 1014.58 1014.78 1015.06 1015.46 1016.01 1016.67 1017.42 1018.19 1018.94 1019.61 1020.16 1020.60 1020.93 1021.18 1021.38 1021.56 1021.73 1021.92 1022.11 1022.30 1022.48 1022.65 1022.81 1022.97 1023.13 1023.31 1023.50 1023.71 1023.93 1024.16 1024.40 1024.63 1024.86 1025.09 1025.32 1025.55 1025.78 1026.00
1011.74 1012.57 1013.26 1013.78 1014.17 1014.45 1014.71 1015.01 1015.41 1015.94 1016.60 1017.35 1018.15 1018.94 1019.66 1020.30 1020.82 1021.25 1021.58 1021.86 1022.09 1022.30 1022.49 1022.67 1022.84 1022.99 1023.13 1023.26 1023.39 1023.53 1023.70 1023.88 1024.09 1024.30 1024.53 1024.75 1024.97 1025.18 1025.40 1025.62 1025.85 1026.09 1026.33
1010.97 1011.93 1012.76 1013.42 1013.92 1014.30 1014.62 1014.96 1015.39 1015.92 1016.58 1017.33 1018.13 1018.94 1019.72 1020.42 1021.02 1021.53 1021.95 1022.30 1022.59 1022.84 1023.06 1023.25 1023.40 1023.54 1023.66 1023.78 1023.90 1024.05 1024.21 1024.41 1024.62 1024.84 1025.06 1025.28 1025.47 1025.66 1025.85 1026.05 1026.26 1026.48 1026.71
1010.21 1011.29 1012.25 1013.03 1013.65 1014.13 1014.54 1014.94 1015.39 1015.94 1016.60 1017.35 1018.16 1018.99 1019.79 1020.53 1021.19 1021.77 1022.26 1022.68 1023.04 1023.33 1023.58 1023.79 1023.95 1024.09 1024.22 1024.34 1024.48 1024.64 1024.83 1025.05 1025.28 1025.51 1025.74 1025.94 1026.12 1026.28 1026.43 1026.58 1026.74 1026.93 1027.12
1009.55 1010.72 1011.77 1012.66 1013.38 1013.97 1014.46 1014.93 1015.44 1016.02 1016.69 1017.44 1018.25 1019.08 1019.89 1020.66 1021.36 1021.98 1022.52 1023.00 1023.40 1023.74 1024.03 1024.26 1024.45 1024.61 1024.76 1024.90 1025.07 1025.26 1025.48 1025.73 1025.99 1026.24 1026.48 1026.68 1026.84 1026.97 1027.07 1027.18 1027.29 1027.42 1027.57
1009.02 1010.23 1011.35 1012.32 1013.13 1013.80 1014.38 1014.93 1015.51 1016.14 1016.84 1017.61 1018.42 1019.24 1020.05 1020.81 1021.52 1022.16 1022.73 1023.23 1023.67 1024.05 1024.38 1024.64 1024.87 1025.06 1025.24 1025.42 1025.62 1025.84 1026.10 1026.39 1026.68 1026.95 1027.20 1027.40 1027.55 1027.66 1027.73 1027.79 1027.85 1027.94 1028.03
1008.63 1009.85 1010.99 1012.00 1012.87 1013.62 1014.29 1014.94 1015.60 1016.29 1017.04 1017.83 1018.65 1019.46 1020.25 1021.00 1021.69 1022.32 1022.89 1023.40 1023.86 1024.26 1024.62 1024.92 1025.18 1025.41 1025.62 1025.84 1026.08 1026.34 1026.63 1026.94 1027.26 1027.56 1027.82 1028.03 1028.18 1028.27 1028.32 1028.35 1028.38 1028.42 1028.48
1008.36 1009.56 1010.68 1011.69 1012.60 1013.42 1014.18 1014.92 1015.68 1016.46 1017.27 1018.10 1018.93 1019.73 1020.50 1021.21 1021.86 1022.46 1023.01 1023.52 1023.97 1024.39 1024.77 1025.10 1025.39 1025.66 1025.91 1026.16 1026.42 1026.71 1027.03 1027.36 1027.69 1028.00 1028.27 1028.49 1028.65 1028.75 1028.80 1028.82 1028.84 1028.86 1028.89
1008.19 1009.32 1010.40 1011.40 1012.32 1013.19 1014.04 1014.87 1015.73 1016.60 1017.49 1018.37 1019.22 1020.02 1020.76 1021.43 1022.04 1022.60 1023.11 1023.60 1024.05 1024.47 1024.86 1025.22 1025.55 1025.84 1026.12 1026.40 1026.68 1026.97 1027.29 1027.62 1027.96 1028.27 1028.55 1028.78 1028.95 1029.06 1029.13 1029.17 1029.19 1029.21 1029.24
1008.11 1009.16 1010.16 1011.13 1012.05 1012.96 1013.87 1014.80 1015.75 1016.72 1017.68 1018.61 1019.48 1020.28 1021.00 1021.64 1022.20 1022.72 1023.20 1023.66 1024.10 1024.53 1024.94 1025.32 1025.68 1026.00 1026.30 1026.58 1026.86 1027.15 1027.45 1027.77 1028.09 1028.39 1028.67 1028.91 1029.09 1029.23 1029.32 1029.38 1029.43 1029.46 1029.50
1008.13 1009.08 1010.00 1010.91 1011.82 1012.75 1013.71 1014.71 1015.74 1016.79 1017.81 1018.79 1019.68 1020.49 1021.19 1021.80 1022.33 1022.82 1023.28 1023.72 1024.17 1024.61 1025.03 1025.44 1025.81 1026.16 1026.46 1026.75 1027.02 1027.28 1027.55 1027.84 1028.12 1028.41 1028.67 1028.91 1029.11 1029.27 1029.39 1029.48 1029.54 1029.60 1029.65
1008.30 1009.14 1009.98 1010.83 1011.71 1012.64 1013.62 1014.66 1015.75 1016.84 1017.90 1018.90 1019.81 1020.61 1021.31 1021.90 1022.42 1022.89 1023.34 1023.79 1024.24 1024.70 1025.15 1025.58 1025.98 1026.33 1026.65 1026.92 1027.16 1027.40 1027.63 1027.87 1028.11 1028.36 1028.60 1028.83 1029.03 1029.21 1029.34 1029.45 1029.54 1029.61 1029.66
1008.70 1009.43 1010.17 1010.95 1011.79 1012.69 1013.67 1014.72 1015.81 1016.91 1017.98 1018.98 1019.88 1020.68 1021.35 1021.94 1022.45 1022.92 1023.38 1023.85 1024.32 1024.80 1025.28 1025.74 1026.15 1026.52 1026.82 1027.08 1027.30 1027.49 1027.68 1027.87 1028.07 1028.28 1028.49 1028.70 1028.90 1029.07 1029.21 1029.33 1029.42 1029.48 1029.53
1009.40 1010.03 1010.68 1011.38 1012.15 1013.00 1013.94 1014.95 1016.00 1017.07 1018.10 1019.06 1019.93 1020.70 1021.36 1021.93 1022.44 1022.93 1023.40 1023.89 1024.38 1024.89 1025.39 1025.86 1026.29 1026.65 1026.95 1027.19 1027.38 1027.54 1027.69 1027.84 1028.00 1028.17 1028.35 1028.54 1028.71 1028.87 1029.00 1029.10 1029.18 1029.22 1029.24
1010.46 1010.99 1011.56 1012.18 1012.87 1013.65 1014.51 1015.43 1016.40 1017.38 1018.33 1019.22 1020.02 1020.74 1021.36 1021.92 1022.42 1022.91 1023.40 1023.90 1024.41 1024.93 1025.43 1025.90 1026.32 1026.67 1026.96 1027.18 1027.35 1027.48 1027.60 1027.72 1027.85 1028.00 1028.15 1028.31 1028.46 1028.60 1028.70 1028.78 1028.81 1028.82 1028.79
1011.87 1012.33 1012.82 1013.36 1013.97 1014.65 1015.40 1016.21 1017.05 1017.90 1018.73 1019.51 1020.22 1020.86 1021.43 1021.95 1022.43 1022.90 1023.38 1023.87 1024.37 1024.86 1025.35 1025.79 1026.18 1026.51 1026.77 1026.97 1027.12 1027.24 1027.35 1027.46 1027.58 1027.72 1027.87 1028.01 1028.14 1028.24 1028.31 1028.34 1028.33 1028.29 1028.22
1013.60 1013.99 1014.42 1014.88 1015.40 1015.98 1016.60 1017.27 1017.97 1018.66 1019.34 1019.98 1020.58 1021.12 1021.61 1022.07 1022.50 1022.93 1023.37 1023.81 1024.26 1024.69 1025.11 1025.49 1025.83 1026.11 1026.33 1026.51 1026.65 1026.78 1026.90 1027.02 1027.16 1027.31 1027.46 1027.60 1027.71 1027.79 1027.83 1027.81 1027.76 1027.66 1027.54
1015.55 1015.89 1016.26 1016.66 1017.09 1017.56 1018.06 1018.58 1019.11 1019.65 1020.17 1020.66 1021.12 1021.55 1021.94 1022.31 1022.67 1023.02 1023.38 1023.73 1024.08 1024.41 1024.73 1025.01 1025.26 1025.47 1025.64 1025.80 1025.94 1026.08 1026.23 1026.39 1026.57 1026.75 1026.92 1027.07 1027.18 1027.24 1027.25 1027.19 1027.09 1026.95 1026.78
1017.58 1017.89 1018.22 1018.56 1018.92 1019.28 1019.66 1020.03 1020.41 1020.79 1021.15 1021.50 1021.82 1022.13 1022.41 1022.68 1022.93 1023.18 1023.41 1023.64 1023.85 1024.05 1024.22 1024.38 1024.51 1024.63 1024.75 1024.87 1025.01 1025.18 1025.37 1025.58 1025.81 1026.04 1026.25 1026.43 1026.54 1026.60 1026.58 1026.50 1026.36 1026.18 1025.98
1019.58 1019.86 1020.15 1020.44 1020.72 1021.00 1021.26 1021.51 1021.76 1021.99 1022.21 1022.42 1022.62 1022.81 1022.98 1023.13 1023.27 1023.38 1023.48 1023.55 1023.60 1023.63 1023.64 1023.65 1023.66 1023.68 1023.73 1023.82 1023.96 1024.15 1024.38 1024.66 1024.95 1025.23 1025.49 1025.69 1025.82 1025.88 1025.85 1025.74 1025.58 1025.37 1025.14
1021.42 1021.67 1021.92 1022.16 1022.37 1022.56 1022.73 1022.87 1023.00 1023.12 1023.22 1023.32 1023.41 1023.49 1023.56 1023.61 1023.62 1023.60 1023.55 1023.46 1023.34 1023.20 1023.05 1022.90 1022.78 1022.70 1022.68 1022.74 1022.87 1023.08 1023.36 1023.68 1024.03 1024.36 1024.65 1024.88 1025.03 1025.09 1025.05 1024.93 1024.75 1024.51 1024.26
1023.03 1023.23 1023.43 1023.61 1023.75 1023.86 1023.94 1023.99 1024.02 1024.04 1024.06 1024.07 1024.08 1024.08 1024.06 1024.00 1023.91 1023.78 1023.59 1023.36 1023.08 1022.78 1022.48 1022.20 1021.96 1021.79 1021.71 1021.73 1021.85 1022.07 1022.38 1022.73 1023.11 1023.48 1023.80 1024.04 1024.20 1024.25 1024.20 1024.06 1023.86 1023.61 1023.34
1024.36 1024.49 1024.62 1024.72 1024.78 1024.80 1024.79 1024.76 1024.71 1024.66 1024.60 1024.55 1024.50 1024.43 1024.35 1024.23 1024.06 1023.84 1023.55 1023.20 1022.81 1022.39 1021.97 1021.58 1021.26 1021.02 1020.88 1020.87 1020.98 1021.19 1021.50 1021.87 1022.25 1022.62 1022.94 1023.18 1023.32 1023.36 1023.29 1023.14 1022.91 1022.64 1022.35
Thickness
5532 5531 5532 5531 5531 5531 5531 5530 5530 5529 5529 5529 5529 5529 5529 5529 5530 5532 5534 5535 5537 5538 5540 5541 5542 5544 5546 5547 5549 5551 5552 5554 5557 5559 5561 5563 5565 5566 5567 5568 5570 5572 5573
5518 5519 5519 5518 5518 5518 5518 5518 5517 5517 5517 5517 5517 5517 5517 5518 5518 5520 5522 5523 5525 5526 5528 5529 5530 5532 5534 5536 5537 5539 5540 5542 5544 5546 5549 5552 5555 5557 5558 5559 5561 5562 5564
5507 5506 5506 5505 5505 5505 5505 5506 5505 5505 5504 5504 5505 5505 5505 5506 5506 5507 5508 5510 5512 5513 5515 5517 5519 5520 5522 5523 5524 5526 5527 5530 5532 5534 5536 5539 5543 5544 5548 5549 5551 5553 5555
5494 5494 5494 5493 5493 5493 5493 5492 5492 5492 5492 5491 5491 5492 5492 5491 5492 5493 5494 5497 5499 5501 5503 5505 5506 5508 5509 5511 5512 5514 5515 5517 5520 5522 5524 5526 5528 5530 5535 5539 5541 5543 5545
5481 5482 5482 5482 5481 5480 5479 5479 5479 5479 5478 5478 5478 5478 5478 5478 5478 5479 5481 5483 5486 5488 5490 5492 5493 5495 5497 5499 5500 5501 5503 5505 5507 5509 5512 5514 5516 5519 5521 5526 5530 5531 5535
5469 5469 5469 5468 5467 5466 5466 5465 5465 5465 5465 5464 5464 5464 5464 5464 5465 5466 5467 5469 5472 5475 5477 5479 5481 5483 5485 5487 5489 5490 5491 5493 5495 5497 5500 5502 5505 5507 5509 5513 5517 5520 5524
5456 5455 5455 5454 5453 5452 5452 5452 5452 5452 5452 5451 5451 5451 5451 5451 5452 5453 5454 5455 5458 5461 5464 5465 5468 5470 5472 5474 5476 5478 5480 5481 5483 5485 5488 5491 5493 5496 5498 5501 5504 5508 5513
5444 5444 5443 5442 5441 5439 5438 5438 5438 5438 5439 5438 5438 5438 5438 5438 5439 5440 5441 5442 5445 5448 5451 5453 5455 5457 5459 5462 5464 5466 5468 5469 5471 5474 5476 5479 5482 5485 5488 5491 5492 5496 5501
5432 5432 5431 5430 5429 5427 5426 5425 5425 5425 5425 5424 5424 5425 5425 5426 5426 5427 5428 5430 5432 5435 5438 5440 5442 5445 5447 5450 5451 5454 5456 5458 5460 5462 5465 5468 5472 5474 5478 5480 5483 5485 5490
5419 5418 5418 5417 5416 5415 5414 5412 5412 5412 5412 5411 5411 5412 5412 5412 5414 5415 5416 5417 5420 5422 5424 5427 5429 5432 5435 5437 5439 5442 5444 5447 5449 5451 5454 5457 5461 5464 5467 5470 5472 5475 5478
5407 5406 5405 5404 5403 5402 5401 5400 5399 5399 5399 5399 5398 5398 5399 5400 5401 5402 5403 5405 5407 5409 5412 5414 5417 5419 5422 5424 5426 5429 5432 5435 5438 5440 5443 5447 5449 5453 5456 5459 5462 5465 5467
5394 5393 5392 5391 5390 5388 5388 5387 5387 5387 5387 5386 5386 5386 5386 5387 5388 5389 5390 5392 5394 5396 5399 5402 5404 5407 5409 5411 5414 5417 5420 5424 5427 5429 5432 5435 5439 5442 5446 5448 5451 5454 5457
5383 5381 5379 5378 5377 5376 5375 5375 5374 5374 5374 5374 5373 5373 5374 5374 5375 5377 5378 5379 5381 5384 5387 5389 5392 5394 5397 5399 5402 5404 5408 5412 5415 5418 5421 5424 5427 5432 5435 5439 5442 5444 5448
5371 5370 5368 5366 5365 5364 5364 5363 5363 5362 5362 5361 5361 5361 5362 5362 5363 5364 5365 5367 5369 5372 5374 5377 5380 5382 5385 5388 5390 5392 5395 5400 5404 5407 5410 5413 5417 5421 5424 5428 5432 5434 5436
5361 5360 5358 5356 5354 5353 5353 5353 5352 5351 5350 5349 5349 5349 5350 5350 5350 5351 5353 5355 5357 5360 5362 5365 5368 5370 5373 5377 5379 5381 5384 5389 5393 5396 5400 5403 5407 5411 5415 5419 5422 5424 5426
5351 5350 5348 5346 5345 5344 5343 5342 5341 5339 5338 5338 5338 5338 5338 5338 5339 5339 5340 5342 5344 5347 5350 5353 5356 5359 5363 5366 5368 5371 5374 5378 5382 5386 5390 5393 5397 5401 5405 5409 5413 5415 5417
5341 5339 5338 5336 5335 5333 5332 5330 5329 5328 5327 5327 5327 5327 5327 5327 5327 5328 5328 5330 5332 5335 5337 5341 5344 5348 5352 5354 5357 5360 5363 5368 5372 5377 5380 5385 5389 5391 5395 5399 5402 5405 5408
5330 5328 5326 5325 5323 5321 5320 5319 5318 5317 5316 5316 5316 5316 5316 5316 5316 5316 5316 5318 5319 5322 5325 5329 5333 5337 5341 5344 5347 5350 5353 5358 5363 5368 5372 5375 5379 5382 5386 5389 5392 5396 5399
5318 5316 5314 5313 5312 5310 5308 5307 5306 5306 5306 5306 5305 5305 5304 5305 5305 5305 5306 5306 5307 5310 5313 5318 5322 5326 5331 5333 5337 5339 5342 5348 5354 5359 5363 5367 5371 5375 5377 5380 5383 5386 5390
5305 5304 5303 5301 5300 5299 5297 5296 5296 5295 5296 5296 5295 5295 5295 5295 5296 5296 5296 5297 5298 5301 5304 5308 5312 5316 5321 5324 5327 5329 5333 5339 5345 5350 5354 5358 5362 5365 5367 5370 5373 5377 5381
5294 5292 5291 5289 5288 5287 5286 5286 5285 5285 5286 5285 5286 5286 5286 5286 5287 5287 5288 5288 5290 5292 5295 5299 5304 5307 5312 5316 5319 5322 5325 5330 5335 5340 5345 5349 5352 5355 5358 5361 5365 5369 5371
5283 5281 5280 5278 5277 5276 5275 5275 5275 5275 5275 5276 5276 5277 5277 5277 5279 5279 5280 5281 5281 5283 5286 5290 5295 5299 5303 5308 5312 5315 5319 5323 5326 5332 5336 5340 5342 5345 5349 5352 5356 5358 5360
5271 5269 5268 5267 5266 5265 5264 5264 5265 5265 5265 5266 5267 5268 5269 5270 5271 5272 5273 5274 5274 5275 5279 5283 5288 5293 5297 5301 5305 5308 5312 5315 5318 5323 5327 5331 5333 5335 5338 5341 5345 5347 5349
5260 5258 5257 5256 5255 5255 5255 5254 5254 5255 5255 5256 5258 5260 5261 5262 5264 5266 5268 5268 5268 5270 5274 5278 5282 5286 5290 5294 5297 5300 5304 5307 5310 5314 5317 5320 5322 5324 5327 5330 5332 5335 5338
5249 5247 5246 5245 5245 5245 5245 5245 5245 5246 5246 5247 5249 5251 5253 5255 5257 5259 5260 5262 5264 5265 5269 5273 5276 5279 5283 5288 5291 5293 5297 5299 5302 5304 5306 5307 5309 5312 5315 5319 5322 5324 5327
5238 5238 5237 5237 5236 5236 5236 5237 5237 5238 5238 5240 5241 5242 5244 5246 5248 5251 5254 5256 5258 5261 5264 5268 5271 5274 5278 5283 5285 5287 5290 5292 5293 5294 5295 5298 5300 5303 5306 5309 5312 5315 5318